Temp
15 15 14 14 13 13 13 13 12 12 12 12 12 11 11 11 10 10 10 10 9 8 8 7 8 8 7 7 6 5 5 4 4 5 3 3 4 3 3 5 5 6 5
15 15 15 14 14 14 14 13 13 13 12 12 12 12 12 11 10 10 9 9 9 8 7 7 8 7 7 6 6 5 5 5 5 5 5 4 4 5 6 4 5 5 5
15 15 15 15 14 14 14 13 13 13 13 12 12 12 12 11 10 10 9 9 9 8 7 7 6 7 6 6 6 6 6 5 5 5 5 5 5 5 4 4 3 4 3
15 15 15 15 15 14 14 14 13 13 13 13 12 12 11 11 10 10 9 9 8 8 7 7 6 6 6 5 5 4 4 5 5 4 5 5 5 5 4 4 4 4 4
15 15 15 15 14 14 14 14 14 13 13 13 12 12 11 11 11 10 9 9 8 8 7 6 6 5 5 4 4 4 5 4 4 4 4 4 4 4 4 4 4 4 4
16 16 16 15 15 15 15 15 14 14 14 13 13 13 13 12 11 11 10 9 8 7 7 5 5 5 5 5 4 4 3 3 3 4 3 4 4 4 3 3 4 4 5
17 16 16 15 16 16 15 15 14 14 14 14 13 13 12 12 11 10 10 9 8 7 6 5 6 5 4 4 4 4 4 4 4 3 3 3 4 4 3 3 3 3 4
17 16 16 16 16 16 15 15 14 14 14 13 13 12 12 12 11 11 10 9 8 6 6 6 6 5 5 4 4 3 3 4 4 3 4 4 4 3 3 3 3 3 4
17 17 16 16 16 16 15 14 14 14 13 13 12 12 12 12 11 11 9 8 8 7 7 6 6 5 4 4 4 3 3 4 3 3 3 3 3 3 3 2 2 2 3
17 17 16 16 16 15 14 14 13 13 12 12 12 12 12 11 11 11 10 8 8 7 7 6 5 4 4 4 3 3 3 3 3 3 2 2 2 2 2 2 2 3 3
17 17 16 16 15 14 14 13 13 12 13 12 12 12 11 11 10 10 9 8 7 7 6 6 4 4 4 4 3 3 3 3 2 2 2 2 2 2 1 1 2 2 2
17 16 16 15 14 13 13 13 13 13 12 12 11 11 10 10 9 9 8 7 6 6 5 5 4 3 3 3 3 1 2 2 2 2 2 2 2 1 1 1 1 1 1
17 16 14 14 13 13 13 14 13 12 12 12 11 10 10 9 8 8 7 6 6 6 5 4 4 4 3 3 3 2 2 2 2 2 2 2 1 1 1 1 1 2 2
15 15 14 13 13 13 12 12 12 12 11 11 10 9 8 8 7 7 6 6 6 5 5 4 4 3 2 3 2 2 2 2 2 2 1 1 1 1 1 1 1 1 2
13 13 13 12 12 12 12 12 12 11 10 9 9 8 8 7 7 6 6 5 5 4 4 4 3 3 2 3 2 3 2 0 2 2 1 1 0 0 0 1 1 1 1
12 12 12 12 12 11 11 11 10 9 9 8 8 7 7 6 6 6 5 5 4 4 4 4 3 2 2 1 0 0 -2 -1 -1 1 1 1 1 1 1 1 0 0 0
11 12 12 11 11 11 11 10 9 8 8 7 7 7 6 6 6 5 4 4 4 3 3 2 2 2 2 0 -0 -1 -1 -1 -1 0 0 0 0 0 0 0 -0 -0 -0
12 12 12 11 12 9 9 9 8 7 7 7 7 6 6 5 4 4 4 3 3 2 2 2 2 0 0 1 0 -0 0 0 -0 0 0 0 0 0 -0 -0 -1 -1 -1
10 10 10 9 9 10 7 7 7 7 7 6 6 6 5 4 4 4 3 3 2 2 2 0 1 1 1 1 1 1 1 0 0 0 0 0 0 -0 -1 -1 -1 -1 -2
8 9 8 7 8 6 6 6 5 4 4 5 5 5 4 3 3 3 3 2 2 2 2 2 1 1 1 1 1 1 1 1 0 0 0 -0 -0 -1 -1 -1 -2 -2 -2
6 6 7 5 5 5 5 5 4 3 3 3 3 4 4 3 2 3 3 2 2 1 1 2 1 1 1 1 1 1 1 1 0 0 -0 -0 -1 -1 -1 -2 -2 -2 -3
5 5 5 4 4 3 3 4 3 3 2 2 2 2 2 2 1 1 2 1 0 1 1 1 1 1 1 1 1 1 1 0 0 -0 -1 -1 -1 -1 -2 -2 -2 -2 -2
3 3 3 4 3 4 3 3 3 2 2 2 2 2 2 1 0 -1 0 -0 -1 -1 1 1 2 1 1 1 1 1 1 0 -0 -0 -1 -1 -1 -2 -2 -2 -3 -3 -3
3 4 3 3 3 3 3 2 2 2 2 2 2 1 1 0 -1 1 -1 -0 1 -0 -0 0 1 1 1 1 1 1 0 -0 -0 -1 -1 -1 -2 -2 -2 -2 -3 -3 -2
2 3 3 3 2 2 2 2 2 1 1 1 1 2 1 -0 -1 -1 -1 -1 -0 -0 1 0 2 2 1 1 1 1 0 -0 -1 -1 -1 -1 -2 -2 -2 -3 -3 -3 -2
2 3 2 1 2 2 1 1 1 1 1 0 0 -0 0 -1 -1 -0 -1 -1 -1 -1 -0 1 3 2 1 1 0 0 0 -0 -1 -1 -1 -1 -1 -2 -2 -2 -3 -3 -2
Height
3161 3166 3170 3174 3177 3179 3180 3182 3184 3185 3187 3182 3187 3189 3188 3189 3188 3187 3185 3184 3183 3182 3181 3181 3180 3179 3178 3178 3177 3176 3175 3173 3173 3174 3172 3171 3170 3166 3164 3162 3159 3157 3157
3156 3160 3165 3168 3172 3174 3175 3178 3180 3182 3182 3182 3181 3184 3184 3184 3184 3183 3182 3179 3177 3178 3178 3177 3176 3175 3174 3174 3174 3172 3171 3170 3169 3168 3167 3167 3165 3162 3158 3155 3153 3150 3147
3151 3155 3159 3162 3165 3168 3171 3172 3174 3176 3177 3178 3177 3179 3179 3179 3179 3178 3177 3176 3174 3172 3171 3172 3171 3169 3169 3168 3169 3170 3168 3166 3164 3161 3160 3159 3157 3154 3151 3148 3144 3141 3139
3145 3148 3152 3156 3159 3163 3166 3168 3169 3170 3172 3173 3173 3174 3173 3173 3173 3172 3170 3169 3168 3166 3165 3165 3163 3163 3163 3164 3163 3163 3161 3159 3158 3157 3155 3153 3150 3146 3143 3140 3137 3135 3132
3138 3142 3145 3150 3154 3157 3159 3161 3164 3164 3165 3166 3167 3166 3165 3164 3164 3164 3162 3162 3161 3160 3159 3159 3157 3156 3157 3157 3156 3156 3153 3151 3150 3148 3145 3143 3142 3139 3136 3135 3131 3129 3127
3131 3135 3140 3144 3147 3150 3153 3155 3156 3158 3158 3159 3159 3159 3158 3157 3158 3157 3154 3153 3152 3152 3152 3151 3150 3149 3150 3151 3149 3148 3148 3145 3143 3140 3139 3137 3135 3131 3128 3125 3121 3118 3115
3124 3128 3133 3137 3140 3143 3146 3148 3149 3151 3152 3153 3153 3153 3151 3150 3149 3149 3148 3146 3143 3143 3144 3145 3144 3142 3142 3144 3143 3143 3142 3139 3135 3132 3131 3130 3126 3124 3119 3116 3113 3108 3105
3117 3121 3125 3130 3133 3136 3139 3141 3143 3144 3145 3146 3146 3145 3144 3143 3141 3141 3141 3138 3136 3135 3134 3135 3136 3137 3136 3136 3135 3134 3133 3131 3128 3126 3123 3121 3118 3115 3110 3106 3104 3099 3097
3110 3114 3118 3122 3124 3128 3132 3135 3136 3136 3138 3139 3139 3138 3136 3134 3134 3133 3132 3130 3129 3128 3128 3128 3129 3129 3130 3130 3128 3125 3124 3122 3120 3116 3113 3111 3107 3105 3101 3095 3093 3090 3089
3103 3107 3110 3113 3117 3123 3126 3127 3129 3131 3133 3132 3132 3131 3129 3127 3125 3125 3124 3123 3122 3122 3122 3121 3120 3121 3122 3122 3120 3117 3116 3115 3111 3109 3105 3102 3099 3095 3093 3089 3085 3082 3079
3096 3101 3104 3108 3112 3115 3118 3121 3124 3126 3126 3125 3123 3122 3122 3120 3118 3117 3117 3116 3116 3115 3114 3113 3115 3115 3115 3114 3112 3111 3109 3107 3104 3100 3097 3094 3091 3088 3083 3078 3078 3076 3072
3087 3092 3096 3101 3105 3109 3113 3116 3118 3119 3117 3116 3115 3115 3114 3113 3112 3111 3111 3110 3109 3109 3109 3108 3107 3108 3109 3107 3105 3102 3102 3099 3095 3091 3088 3085 3082 3080 3077 3075 3072 3069 3065
3078 3084 3089 3094 3097 3102 3106 3108 3110 3110 3110 3109 3108 3108 3107 3106 3105 3105 3105 3105 3103 3103 3103 3104 3103 3102 3101 3099 3098 3095 3091 3089 3085 3083 3080 3078 3075 3072 3070 3068 3066 3063 3059
3072 3075 3080 3086 3093 3097 3099 3099 3100 3101 3101 3101 3100 3101 3099 3099 3100 3100 3100 3099 3098 3098 3098 3098 3098 3096 3094 3093 3090 3087 3083 3080 3077 3075 3073 3070 3067 3066 3063 3061 3058 3055 3050
3069 3073 3079 3084 3088 3090 3091 3092 3092 3092 3093 3094 3094 3093 3092 3092 3093 3093 3093 3093 3093 3092 3091 3092 3091 3089 3087 3084 3081 3079 3076 3073 3071 3069 3066 3064 3062 3059 3057 3054 3050 3047 3043
3069 3072 3076 3079 3081 3082 3084 3084 3086 3085 3086 3087 3087 3087 3087 3086 3086 3086 3085 3085 3086 3085 3085 3085 3083 3081 3078 3076 3074 3072 3069 3067 3063 3063 3062 3059 3056 3053 3050 3047 3044 3041 3037
3066 3069 3070 3073 3074 3076 3075 3078 3079 3079 3079 3080 3080 3081 3081 3080 3079 3079 3080 3080 3081 3081 3080 3079 3077 3075 3073 3072 3070 3067 3065 3062 3060 3058 3055 3052 3050 3046 3044 3041 3039 3036 3033
3061 3062 3062 3065 3066 3071 3072 3071 3072 3071 3073 3075 3074 3074 3075 3074 3074 3074 3074 3075 3075 3074 3073 3073 3072 3070 3068 3066 3064 3062 3059 3057 3054 3052 3050 3047 3044 3041 3039 3036 3034 3031 3028
3056 3055 3057 3056 3060 3062 3068 3066 3065 3064 3067 3071 3069 3070 3070 3070 3068 3068 3068 3069 3069 3068 3067 3066 3065 3064 3063 3060 3057 3056 3054 3052 3050 3047 3044 3042 3039 3037 3035 3033 3030 3027 3024
3050 3055 3052 3055 3055 3057 3061 3062 3063 3060 3060 3066 3065 3066 3065 3065 3066 3064 3064 3064 3064 3063 3062 3061 3060 3058 3056 3054 3052 3049 3047 3046 3043 3041 3039 3037 3035 3034 3031 3029 3026 3023 3021
3045 3047 3046 3046 3051 3054 3056 3058 3058 3058 3059 3059 3058 3061 3060 3061 3061 3060 3059 3058 3058 3057 3056 3055 3053 3051 3050 3048 3047 3045 3042 3039 3037 3036 3035 3033 3032 3030 3028 3026 3023 3020 3018
3042 3046 3045 3046 3047 3049 3050 3053 3056 3056 3053 3052 3051 3054 3056 3056 3054 3052 3053 3051 3050 3050 3049 3049 3048 3046 3044 3042 3041 3039 3037 3035 3033 3032 3031 3030 3029 3027 3025 3022 3020 3018 3015
3037 3041 3038 3041 3043 3045 3046 3049 3050 3049 3052 3051 3050 3048 3049 3049 3050 3048 3048 3047 3046 3045 3044 3042 3042 3041 3040 3039 3037 3035 3033 3031 3030 3029 3028 3027 3026 3024 3022 3020 3017 3015 3012
3033 3030 3035 3038 3037 3042 3042 3044 3044 3044 3045 3045 3044 3044 3045 3044 3044 3043 3040 3042 3041 3041 3040 3038 3036 3036 3034 3034 3032 3031 3029 3027 3026 3025 3025 3024 3023 3021 3019 3017 3015 3013 3011
3030 3031 3033 3036 3034 3037 3038 3039 3038 3038 3041 3039 3038 3037 3038 3038 3039 3039 3036 3035 3035 3034 3034 3032 3031 3030 3031 3030 3027 3027 3025 3024 3023 3022 3022 3021 3020 3018 3017 3015 3014 3012 3009
3024 3026 3027 3029 3032 3032 3034 3033 3031 3034 3033 3033 3031 3030 3031 3032 3033 3032 3032 3030 3030 3029 3028 3027 3026 3025 3025 3025 3023 3022 3021 3020 3020 3019 3019 3018 3017 3015 3014 3013 3012 3010 3008
Wind_Speed
28 28 26 25 22 19 19 20 21 24 21 28 23 21 25 26 26 27 30 34 37 32 30 26 20 15 12 13 14 13 13 15 17 15 16 16 23 28 30 28 31 30 26
28 30 27 26 27 25 24 24 23 24 26 28 30 29 31 33 32 32 33 37 38 39 36 29 26 20 16 15 18 16 17 16 17 18 17 19 23 27 29 25 29 29 30
28 30 29 29 30 29 25 28 27 27 31 31 33 33 36 38 39 39 39 40 41 41 38 40 31 29 21 20 20 20 19 18 21 24 23 24 26 26 28 29 29 30 25
29 26 29 30 29 26 27 27 30 30 29 30 34 34 38 40 42 42 44 43 43 43 41 41 34 31 25 20 21 20 19 22 23 25 24 27 30 29 30 28 28 29 33
30 28 28 27 27 26 28 28 28 30 28 28 29 32 35 37 40 43 44 44 44 43 43 41 38 28 26 22 23 21 25 26 23 27 28 30 30 29 30 29 30 32 32
29 28 29 30 28 26 26 29 29 29 28 27 25 27 25 33 33 32 38 41 41 42 40 38 38 29 25 25 23 25 26 28 29 29 26 30 31 31 30 32 35 36 38
32 29 30 29 27 28 28 30 32 28 23 17 16 19 20 24 26 30 34 35 37 39 36 33 30 25 28 27 25 27 29 31 34 33 27 31 33 31 34 34 33 36 35
34 33 33 29 29 30 29 30 27 21 17 16 17 19 20 18 22 25 30 33 35 35 35 32 26 25 29 27 29 27 27 31 31 28 31 33 32 32 34 35 32 31 30
35 35 35 33 36 33 29 26 22 24 19 15 13 16 19 21 22 23 28 30 32 34 29 26 29 28 26 26 27 29 31 31 27 30 32 34 36 35 36 37 32 32 29
38 36 38 41 39 30 27 26 25 23 17 15 16 20 22 22 22 23 25 30 32 30 28 28 29 27 25 24 28 29 32 28 30 30 35 35 36 35 35 30 30 30 30
38 38 40 41 32 30 30 25 18 18 17 22 22 23 26 23 22 22 26 30 28 24 25 26 26 26 26 27 30 29 28 30 32 35 35 34 33 34 29 30 29 29 32
41 41 42 36 33 32 27 25 23 28 20 21 23 26 26 23 21 22 28 25 25 23 21 24 28 26 28 29 34 22 28 33 34 34 33 31 29 27 25 25 27 31 34
44 42 37 35 37 33 29 25 28 23 24 23 24 27 25 22 23 23 27 25 28 31 29 29 31 32 31 25 27 27 30 34 34 32 31 28 25 24 24 25 27 30 31
41 42 39 38 34 28 24 18 20 21 21 24 27 25 22 23 23 23 25 25 24 25 28 33 31 26 21 24 27 29 30 29 25 22 22 22 22 22 24 28 30 28 27
37 36 34 27 21 18 18 19 18 19 22 25 26 24 24 23 22 22 24 23 22 24 24 19 17 18 22 24 24 26 25 26 24 21 22 23 22 24 25 26 25 23 22
28 23 19 17 17 17 19 17 20 21 22 23 23 22 22 22 23 21 20 20 18 16 17 19 20 20 24 23 25 27 25 26 27 26 22 21 22 23 23 23 21 19 19
18 14 13 13 14 16 16 18 18 19 20 20 22 22 22 23 20 17 15 13 14 15 15 16 18 20 21 22 25 24 20 21 29 26 23 22 22 22 21 20 18 18 19
21 17 15 13 16 18 18 15 16 18 20 20 21 20 19 18 15 13 13 14 14 15 17 17 15 15 19 20 22 23 25 23 24 24 22 22 22 21 19 18 17 18 19
12 10 9 11 22 26 16 14 18 19 19 17 18 16 14 13 12 12 15 15 16 17 18 15 19 18 20 22 23 21 21 21 21 21 21 20 19 17 16 17 17 17 18
11 12 11 16 16 17 15 14 14 19 23 16 16 11 13 14 15 15 15 15 16 17 19 19 17 18 19 20 21 22 23 22 21 19 17 16 15 15 16 17 17 18 17
12 14 17 18 13 16 16 17 14 14 18 16 18 12 13 10 15 16 17 14 14 12 18 17 17 19 20 20 19 20 20 18 16 16 15 15 14 15 17 17 19 18 17
10 10 15 13 14 14 14 11 11 14 15 15 14 19 14 21 22 21 18 15 18 20 19 19 17 19 20 20 20 20 19 17 16 14 13 13 14 16 17 18 18 17 16
13 16 12 18 21 12 16 9 13 19 19 23 25 23 22 21 22 22 24 17 21 23 24 21 19 17 18 17 18 18 16 15 14 12 12 12 14 16 17 17 17 14 14
19 9 16 24 13 18 21 17 20 22 26 28 22 26 25 24 21 20 19 21 23 19 22 22 22 17 18 19 20 17 14 13 12 11 11 12 14 15 16 16 14 12 12
23 21 27 33 18 17 24 21 20 19 19 26 24 19 22 21 18 19 20 17 18 22 20 22 19 17 14 16 19 13 13 12 11 11 11 12 13 14 13 14 12 11 12
5 18 22 14 20 22 21 24 21 21 21 21 22 21 25 23 20 23 19 21 23 21 22 21 16 12 13 13 13 14 12 11 11 11 11 12 13 13 12 12 11 10 11
Wind_Direction
215 212 214 215 218 225 229 233 234 243 251 275 276 277 283 286 283 288 292 301 312 338 326 296 296 295 295 302 303 304 298 291 279 304 280 288 288 297 294 297 303 304 305
217 217 222 226 227 232 241 244 248 255 264 267 283 285 287 288 288 287 291 300 302 310 327 302 286 289 291 293 301 304 303 292 295 307 308 297 297 297 302 301 296 301 297
221 226 229 231 231 233 239 251 258 261 264 268 278 283 286 288 289 289 290 296 300 306 312 316 287 284 285 294 295 296 305 302 303 308 311 308 308 307 306 305 301 305 291
222 228 228 229 233 237 243 247 256 266 269 273 277 284 285 286 285 286 288 294 299 302 305 310 306 285 286 296 295 291 299 301 302 301 303 306 307 315 305 304 299 303 301
228 230 229 231 234 241 246 253 255 264 273 276 279 281 282 284 287 286 286 290 293 293 298 302 303 284 278 287 288 294 298 302 302 306 306 309 310 300 298 299 298 297 297
228 225 230 234 242 247 249 252 258 265 270 273 277 280 284 283 286 295 291 289 287 286 294 296 296 280 277 286 286 296 302 310 306 301 299 306 304 301 299 300 301 299 298
231 227 229 235 241 243 248 253 259 262 263 254 257 269 269 276 284 286 291 288 282 285 285 285 288 277 276 279 273 285 301 310 309 299 299 305 302 301 300 298 297 299 300
235 231 233 234 241 243 249 255 253 249 234 239 256 261 266 283 282 287 284 279 280 283 281 280 280 278 279 288 285 288 297 309 308 298 299 301 301 304 298 296 299 298 298
237 235 235 238 242 244 249 244 231 223 245 264 268 270 284 285 279 287 277 272 270 276 272 276 275 275 285 286 291 295 303 305 302 304 302 304 306 306 302 303 304 297 298
233 232 235 237 241 244 233 222 219 233 253 255 293 290 279 281 289 293 279 268 270 274 271 276 274 279 280 287 294 290 299 297 300 300 301 301 303 303 301 297 297 305 311
231 231 233 237 235 225 216 217 232 249 267 289 292 284 270 272 281 291 277 271 269 266 276 284 280 277 282 284 285 289 292 295 298 300 302 301 299 298 303 304 309 309 306
227 225 228 227 216 207 216 234 258 266 282 290 287 277 273 276 279 278 272 269 259 260 282 290 286 284 288 292 297 304 295 296 298 299 297 297 296 294 295 300 301 301 302
224 222 218 208 206 217 230 267 275 277 289 288 276 274 275 275 268 267 270 272 276 262 264 284 287 285 283 294 290 293 296 295 294 296 297 298 298 298 298 298 298 298 298
217 216 210 207 217 225 243 260 273 278 277 271 268 270 270 268 268 271 272 276 279 273 273 283 286 291 284 286 291 294 293 296 299 294 291 298 296 294 296 298 298 300 300
197 195 200 211 229 248 262 265 272 268 262 263 269 276 276 273 277 274 283 275 281 278 280 283 291 291 293 297 300 302 309 310 309 312 316 309 304 299 298 298 302 305 306
195 203 216 232 239 249 259 264 261 257 262 269 273 275 275 278 282 281 274 276 273 272 278 290 300 306 297 302 296 299 303 301 306 316 308 307 306 303 303 305 306 309 314
207 224 240 248 261 260 270 267 260 261 264 268 273 275 278 281 280 273 272 273 273 277 286 291 296 290 293 287 289 294 292 277 290 302 305 307 306 307 309 310 313 315 316
252 248 251 244 263 252 255 250 251 258 264 271 276 277 277 274 271 274 277 280 285 292 293 291 291 289 284 291 288 284 292 297 300 303 306 306 305 308 309 312 318 319 320
254 244 247 262 278 276 254 258 270 268 261 267 272 272 272 276 280 284 284 284 286 290 291 289 295 298 301 302 305 304 303 300 297 297 301 300 302 305 308 313 320 322 322
259 260 248 251 254 243 251 261 258 257 276 275 273 274 271 271 276 278 281 284 282 281 277 289 289 296 301 303 304 306 304 301 298 298 296 299 302 307 311 319 324 324 324
225 233 240 241 223 236 251 251 252 262 270 286 292 307 282 284 285 284 284 276 271 275 289 292 297 302 305 307 305 304 305 305 302 302 302 304 308 313 319 324 323 323 320
263 229 230 231 246 248 259 243 217 261 278 289 275 301 274 300 304 304 300 299 301 298 301 303 304 305 309 309 311 315 314 311 306 308 303 303 309 314 321 321 322 322 322
218 249 208 220 224 270 202 191 223 224 244 258 269 281 281 295 285 289 288 275 279 284 295 302 303 303 301 302 307 310 310 307 309 302 300 303 310 317 320 321 324 327 324
213 225 216 229 216 245 241 255 222 253 257 258 269 271 270 274 280 279 278 266 275 279 289 293 296 300 303 305 304 306 304 299 297 295 291 303 310 316 321 322 330 327 327
232 234 244 243 225 243 261 262 260 257 254 257 273 264 270 265 273 264 271 283 289 288 287 290 293 299 300 300 302 308 298 299 291 284 288 299 308 315 325 324 332 325 327
265 251 262 280 269 259 250 248 259 255 259 265 283 269 259 271 266 282 278 281 297 297 290 282 289 298 302 300 301 299 299 293 287 283 285 296 306 315 324 324 327 324 326